Regional Weather Roundup
Issued by NWS

Home | Current Version | Previous Version | Text Only | Print | Product List | Glossary On
Versions: 1 2 3 4 5 6 7 8 9 10 11 12 13 14 15 16 17 18 19 20 21 22 23 24 25 26 27 28 29 30 31 32 33 34 35 36 37 38 39 40 41 42 43 44 45 46 47 48 49 50
000
ASCA44 KEWX 311120
RWRMX

LATIN AMERICA AND CARIBBEAN REGIONAL WEATHER ROUNDUP
NATIONAL WEATHER SERVICE AUSTIN/SAN ANTONIO TX
600 AM CDT MON AUG 31 2015

NOTE: "FAIR" INDICATED FEW OR NO CLOUDS BELOW 12,000 FEET WITH NO
SIGNIFICANT WEATHER AND/OR OBSTRUCTIONS TO VISIBILITY.

BAJA CALIFORNIA

CITY           SKY/WX    TMP DP  RH WIND       PRES   REMARKS
TIJUANA        MOCLDY    64  61  88 CALM      29.88F

NORTHWESTERN MEXICO

CITY           SKY/WX    TMP DP  RH WIND       PRES   REMARKS
CULIACAN       CLOUDY    79  73  83 NE7       29.86
DURANGO        MOCLDY    61  48  63 CALM      30.21
HERMOSILLO     PTCLDY    86  72  62 CALM      29.86R HX  92
OBREGON        MOCLDY    79  66  65 SE7       29.80

NORTHEASTERN MEXICO

CITY           SKY/WX    TMP DP  RH WIND       PRES   REMARKS
MONTERREY      CLEAR     70  66  88 CALM      29.94S
SALTILLO       CLEAR     64  59  82 CALM      30.15
CD. VICTORIA   PTCLDY    75  68  78 SE6       29.95

WESTERN MEXICO

CITY           SKY/WX    TMP DP  RH WIND       PRES   REMARKS
AGUASCALIENTES MOCLDY    57  52  82 SE5       30.24
COLIMA         MOCLDY    72  66  83 N12       30.01
GUADALAJARA    CLOUDY    64  57  77 CALM      30.15
MAZATLAN       CLOUDY    73  70  88 SE14      29.84S
P. VALLARTA    CLOUDY    77  73  88 N8        29.89S
ZACATECAS      PTCLDY    59  46  63 SE5       30.26S

CENTRAL MEXICO

CITY           SKY/WX    TMP DP  RH WIND       PRES   REMARKS
MEXICO CITY    MOCLDY    57  54  88 CALM      30.33S
POZA RICA      CLEAR     77  75  94 CALM      29.94
PUEBLA         MOCLDY    55  54  94 CALM      30.32S
QUERETARO      PTCLDY    55  54  94 CALM      30.30R
S. LUIS POTOSI MOCLDY    55  54  94 CALM      30.24S
TAMPICO        PTCLDY    79  73  83 CALM      29.92
TOLUCA         PTCLDY    48  46  93 CALM      30.38R

SOUTHERN MEXICO

CITY           SKY/WX    TMP DP  RH WIND       PRES   REMARKS
ACAPULCO       MOCLDY    81  73  78 N2        29.86F
OAXACA         PTCLDY    57  55  94 CALM      30.24S
VERACRUZ       PTCLDY    73  73 100 CALM      29.90

YUCATAN PENINSULA

CITY           SKY/WX    TMP DP  RH WIND       PRES   REMARKS
CAMPECHE       PTCLDY    77  75  94 CALM      29.90S
CANCUN         MOCLDY    77  77 100 N3        29.93R
CHETUMAL       LGT RAIN  77  70  78 CALM      29.92
CD. DEL CARMEN PTCLDY    81  75  83 SE8       29.89
COZUMEL        PTCLDY    75  75 100 CALM      29.92S
MERIDA         PTCLDY    77  75  94 E5        29.93S
MINATITLAN     PTCLDY    75  68  78 CALM      29.86
TAPACHULA      PTCLDY    77  73  88 E7        29.86F
TUX. GUTIERREZ PTCLDY    72  66  83 NW7       29.94
VILLAHERMOSA   FOG       75  75 100 CALM      29.91  VSB 1

CENTRAL AMERICA

CITY           SKY/WX    TMP DP  RH WIND       PRES   REMARKS
BELIZE CITY    MOCLDY    79  77  94 W2        29.89

CARIBBEAN

CITY           SKY/WX    TMP DP  RH WIND       PRES   REMARKS
ARUBA          PTCLDY    82  77  83 E17       29.86S HX  91
CURACAO        PTCLDY    84  77  79 SE13      29.92R HX  94
KINGSTON       PTCLDY    84  75  74 NW6       29.92S HX  92
NASSAU         MOCLDY    79  75  89 CALM      30.04R
SAN JUAN       MOSUNNY   81  75  83 E3        30.03
SANTO DOMINGO  PTCLDY    77  75  94 NE5       30.00S
ST. CROIX      MOSUNNY   82  75  78 E9        30.03R
ST. KITTS      MOSUNNY   82  75  78 NE13      30.03R
ST. MAARTEN    MOSUNNY   82  75  78 E9        30.03R
ST. THOMAS     MOSUNNY   84  79  84 NE7       30.02R HX  96

$$




USA.gov is the U.S. government's official web portal to all federal, state and local government web resources and services.